Weather History for Palm Springs, CA

Change the Weather History Date:

Monday, February 4, 2013

  Actual Average Record
Temperature  
Mean Temperature 68 °F 59 °F  
Max Temperature 82 °F 71 °F 90 °F (1963)
Min Temperature 53 °F 47 °F 29 °F (1956)
Degree Days  
Heating Degree Days 0 7  
Month to date heating degree days 3 28  
Since 1 July heating degree days 579 655  
Cooling Degree Days 3 1  
Month to date cooling degree days 7 3  
Year to date cooling degree days 8 11  
Growing Degree Days 18 (Base 50)    
Moisture  
Dew Point 36 °F    
Average Humidity 40    
Maximum Humidity 64    
Minimum Humidity 15    
Precipitation  
Precipitation 0.00 in 0.02 in 1.98 in (1911)
Month to date precipitation T 0.07  
Year to date precipitation 0.61 1.07  
Since 1 July precipitation 1.83 3.87  
Snow  
Snow 0.00 in - - ()
Month to date snowfall 0.0  
Year to date snowfall 0.0  
Since 1 July snowfall 0.0  
Snow Depth 0.00 in    
Sea Level Pressure  
Sea Level Pressure 29.98 in    
Wind  
Wind Speed 5 mph (NW)    
Max Wind Speed 10 mph    
Max Gust Speed 15 mph    
Visibility 10 miles    
Events      
T = Trace of Precipitation, MM = Missing Value Source: NWS Daily Summary

Daily Weather History Graph

Daily Weather History Graph

Search for Another Location

Airport:

Trip Planner

Search our weather history database for the weather conditions in past years. The results will help you decide how hot, cold, wet, or windy it might be!

Date:

Astronomy

Feb. 04, 2013 Rise Set
Actual Time 6:40 AM PST 5:20 PM PST
Civil Twilight 6:14 AM PST 5:46 PM PST
Nautical Twilight 5:44 AM PST 6:15 PM PST
Astronomical Twilight 5:15 AM PST 6:45 PM PST
Moon 1:17 AM PST (2/4) 11:51 AM PST (2/4)
Length of Visible Light 11h 32m
Length of Day
10h 40m
Last Quarter, 36% of the Moon is Illuminated
Feb 4
Last Quarter
Feb 9
New
Feb 17
First Quarter
Feb 25
Full
Mar 4
Last Quarter

Hourly Weather History & Observations

Time (PST) Temp. Dew Point Humidity Pressure Visibility Wind Dir Wind Speed Gust Speed Precip Events Conditions
12:53 AM 57.9 °F 44.1 °F 60% 30.02 in 10.0 mi NW 6.9 mph - N/A   Clear
3:53 AM 55.0 °F 42.1 °F 62% 30.00 in 10.0 mi NW 5.8 mph - N/A   Clear
4:53 AM 54.0 °F 41.0 °F 62% 30.01 in 10.0 mi NNW 6.9 mph - N/A   Clear
5:53 AM 54.0 °F 41.0 °F 62% 30.01 in 10.0 mi NW 5.8 mph - N/A   Clear
6:53 AM 55.0 °F 39.9 °F 57% 30.02 in 10.0 mi NW 5.8 mph - N/A   Clear
7:53 AM 59.0 °F 39.9 °F 49% 30.03 in 10.0 mi NNW 9.2 mph - N/A   Clear
8:53 AM 66.9 °F 39.0 °F 36% 30.04 in 10.0 mi WNW 4.6 mph - N/A   Clear
9:53 AM 73.0 °F 37.0 °F 27% 30.04 in 10.0 mi Calm Calm - N/A   Clear
10:53 AM 77.0 °F 30.9 °F 19% 30.03 in 10.0 mi Calm Calm - N/A   Clear
11:53 AM 80.1 °F 30.9 °F 17% 30.00 in 10.0 mi Calm Calm - N/A   Clear
12:53 PM 81.0 °F 30.0 °F 16% 29.96 in 10.0 mi Variable 3.5 mph - N/A   Clear
1:53 PM 81.0 °F 28.9 °F 15% 29.93 in 10.0 mi SSW 4.6 mph - N/A   Clear
2:53 PM 81.0 °F 28.0 °F 14% 29.91 in 10.0 mi ESE 6.9 mph - N/A   Clear
3:53 PM 81.0 °F 28.0 °F 14% 29.91 in 10.0 mi Calm Calm - N/A   Clear
4:53 PM 77.0 °F 30.0 °F 18% 29.91 in 10.0 mi Calm Calm - N/A   Clear
5:53 PM 73.9 °F 30.9 °F 21% 29.93 in 10.0 mi Calm Calm - N/A   Clear
6:53 PM 72.0 °F 30.9 °F 22% 29.95 in 10.0 mi Variable 3.5 mph - N/A   Clear
7:53 PM 69.1 °F 30.9 °F 24% 29.97 in 10.0 mi NW 4.6 mph - N/A   Clear
8:53 PM 66.0 °F 39.9 °F 38% 29.99 in 10.0 mi NW 4.6 mph - N/A   Clear
9:53 PM 63.0 °F 39.9 °F 43% 29.99 in 10.0 mi NNW 8.1 mph - N/A   Clear
10:53 PM 62.1 °F 41.0 °F 46% 29.99 in 10.0 mi NNW 8.1 mph - N/A   Clear
11:53 PM 59.0 °F 42.1 °F 53% 29.99 in 10.0 mi Calm Calm - N/A   Clear